Regional Weather Roundup
Issued by NWS Grand Forks, ND

Home | Current Version | Previous Version | Text Only | Print | Product List | Glossary Off
Versions: 1 2 3 4 5 6 7 8 9 10 11 12 13 14 15 16 17 18 19 20 21 22 23 24 25 26 27 28 29 30 31 32 33 34 35 36 37 38 39 40 41 42 43 44 45 46 47 48 49 50

000
ASUS43 KFGF 280110
RWRFGF
PRAIRIE TO PINES  WEATHER ROUNDUP
NATIONAL WEATHER SERVICE EASTERN NORTH DAKOTA/GRAND FORKS ND
800 PM CDT TUE JUN 27 2017

 **SATELLITE DATA USED TO AUGMENT SKY COVER AT AUTOMATED STATIONS**
 *****  WEATHER ACROSS EASTERN NORTH DAKOTA  *****

CITY           SKY/WX    TMP DP  RH WIND       PRES   REMARKS
GRAND FORKS    PTSUNNY   76  49  38 SE20      29.63F
GRAND FRKS AFB FAIR      75  50  41 SE12      29.63F
DEVILS LAKE    FAIR      76  52  43 SE15      29.59S
FARGO          PTSUNNY   73  49  42 SE17      29.67S
WAHPETON ARPT  NOT AVBL
$$

 ***** WEATHER ACROSS CENTRAL AND WESTERN NORTH DAKOTA  *****

CITY           SKY/WX    TMP DP  RH WIND       PRES   REMARKS
BISMARCK       FAIR      82  59  45 SE12      29.46F
MINOT          FAIR      82  58  43 SE5       29.50F
JAMESTOWN      FAIR      77  49  37 SE13      29.59F
MINOT AFB      FAIR      79  62  56 CALM      29.49F
GARRISON         N/A     79  65  62 VRB5      29.50F
WILLISTON      FAIR      78  54  43 N17       29.59R
DICKINSON      FAIR      80  44  27 NW9       29.54R
HETTINGER      FAIR      82  47  29 NW28G36   29.57R
$$

 *****  OTHER AIRPORT OBSERVATIONS IN OUR AREA  *****

CITY           SKY/WX    TMP DP  RH WIND       PRES   REMARKS
WALHALLA       NOT AVBL
GRAFTON AIRPOR FAIR      73  48  40 SE20G26   29.65F
VALLEY CITY AR CLOUDY    77  54  44 S15G22    29.64F
CANDO          NOT AVBL
CAVALIER APRT  FAIR      75  48  38 SE15G23   29.61F
GWINNER        CLOUDY    75  52  43 SE15G21   29.63F
SHEYENNE NWR     N/A     76  51  40 S13       29.95S
ROLLA            N/A     73  55  53 SE9       29.57S
 ***** THE ABOVE OBSERVATIONS ARE NON NWS ARE NOT QUALITY
       CONTROLLED AND MAY MIS-REPORT RAIN FOR SNOW...
$$

  *****  WEATHER ACROSS NORTHERN MINNESOTA  *****

CITY           SKY/WX    TMP DP  RH WIND       PRES   REMARKS
FLAG ISLAND    PTSUNNY   68  55  64 S13       29.71S
WARROAD        FAIR      73  52  46 S7        29.72S
ROSEAU         FAIR      72  52  49 S10       29.71S
HALLOCK        FAIR      73  46  38 S16G23    29.65F
THF RVR FALLS  PTSUNNY   73  45  36 S15       29.72S
BAUDETTE       FAIR      70  47  43 S10       29.74F
WASKISH        FAIR      72  48  43 S6        29.76F
CROOKSTON      PTSUNNY   75  46  35 S14G22    29.70S
STEPHEN NDAWN    N/A     73  46  38 S14         N/A
GREENBUSH NDAW   N/A     72  46  40 S9          N/A
$$
  *****  WEATHER ACROSS CENTRAL AND WEST MINNESOTA  *****

CITY           SKY/WX    TMP DP  RH WIND       PRES   REMARKS
FOSSTON        FAIR      70  45  40 S12       29.73S
BEMIDJI        FAIR      71  44  38 S10G18    29.76F
PARK RAPIDS    FAIR      73  42  32 SE14      29.77F
ELBOW LAKE     FAIR      69  50  50 SE15G21   29.71F
WADENA         FAIR      68  45  42 SE8       29.77F THUNDER
DETROIT LAKES  FAIR      64  50  59 S13       29.74F
MOORHEAD       FAIR      72  46  40 SE10G20   29.69S
FERGUS FALLS   FAIR      68  52  56 SE14      29.68F THUNDER
MORRIS MN      FAIR      73  46  38 S21       29.69S THUNDER
STAPLES        FAIR      70  43  37 S7        29.79R THUNDER
$$
  *****  WEATHER ELSEWHERE ACROSS MINNESOTA  *****

CITY           SKY/WX    TMP DP  RH WIND       PRES   REMARKS
DULUTH         FAIR      69  46  43 SW9       29.85R
INTRNTL FALLS  FAIR      70  45  40 SW6       29.77S
ELY            FAIR      68  45  42 S5        29.83S
CLOQUET        FAIR      70  41  35 S7        29.85R
WHEATON        FAIR      75  43  31 SE18G24   29.68S
BRAINERD       FAIR      70  44  39 S9        29.80F
HIBBING        FAIR      68  42  38 SW6       29.82S
ALEXANDRIA     PTSUNNY   65  53  65 SE7       29.76F
SAINT CLOUD    FAIR      70  46  42 SE13      29.79F
MINNEAPOLIS    MOCLDY    74  43  32 S10       29.86S
$$

  *****  WEATHER ACROSS SOUTH DAKOTA  *****

CITY           SKY/WX    TMP DP  RH WIND       PRES   REMARKS
SIOUX FALLS    CLOUDY    77  61  57 S23G38    29.69F
BROOKINGS      FAIR      75  57  53 S20G25    29.67F
WATERTOWN      FAIR      74  53  48 S20G25    29.69R
HURON          FAIR      80  60  50 S20G28    29.61F
SISSETON         N/A     77  49  37 S14G24    29.65S
ABERDEEN       FAIR      80  56  43 SE23G31   29.58F
MITCHELL       FAIR      82  63  52 S21G29    29.63R
PIERRE         FAIR      87  59  38 S18       29.50S
MOBRIDGE       FAIR      84  59  42 SE20      29.45F
RAPID CITY     FAIR      79  45  29 VRB6G31   29.63F
$$

  *****  SOME WEATHER IN NEARBY STATES *****

CITY           SKY/WX    TMP DP  RH WIND       PRES   REMARKS
GLASGOW MT     FAIR      77  47  34 N21       29.68R
GREAT FALLS MT FAIR      75  46  35 E13       29.77S
CHEYENNE WY    FAIR      78  26  14 NW22G31   29.89F
SCOTTSBLUFF NE FAIR      82  58  43 E8        29.73R
OMAHA NE       MOCLDY    79  64  60 SE24G31   29.79F
DES MOINES IA  MOCLDY    76  55  48 SE15      29.89F
DAVENPORT IA   NOT AVBL
CHICAGO IL     MOCLDY    73  42  32 SW8       30.01S
EAU CLAIRE WI  FAIR      71  44  37 S10       29.89F
LA CROSSE WI   FAIR      76  48  37 S14       29.91F
$$

  *****  SOME NATIONAL WEATHER *****

CITY           SKY/WX    TMP DP  RH WIND       PRES   REMARKS
LA GUARDIA NY  MOCLDY    74  49  41 NW12G17   29.95R
RALEIGH NC     FAIR      72  53  51 CALM      30.05R
ATLANTA GA     FAIR      78  52  40 NW10      30.06R
NEW ORLEANS LA MOCLDY    82  61  48 E5        29.98R
OKLAHOMA CITY  FAIR      86  64  47 S20G25    29.89S
ALBUQUERQUE NM FAIR      84  45  25 S25G36    29.96R
SALT LAKE CITY FAIR      89  30  12 NE13      29.87F
LOS ANGELES CA FAIR      71  58  63 W10       29.84F
BOISE ID       FAIR      88  42  20 NW10      29.79F
SEATTLE WA     FAIR      69  51  52 SW6       29.98F
$$

*** WEATHER ACROSS MANITOBA...SASKATCHEWAN AND ONTARIO ***
                ***ONTARIO***

CITY           SKY/WX    TMP DP  RH WIND       PRES   REMARKS
GERALDTON      PTCLDY    66  52  59 S7        29.76S
THUNDER BAY    MOCLDY    68  46  45 SW8       29.79S
SIOUX LOOKOUT  PTSUNNY   66  50  55 SW3       29.75F
TORONTO        PTCLDY    64  43  45 W13       29.98R
BIG TROUT LK   PTSUNNY   57  48  72 N9G17     29.75R
PICKLE LAKE    LGT RAIN  70  43  37 W12       29.67S
DRYDEN         MOSUNNY   68  46  45 SW7       29.76R
KENORA         PTSUNNY   68  48  49 S5        29.73F
$$
                *** MANITOBA***

CITY           SKY/WX    TMP DP  RH WIND       PRES   REMARKS
BRANDON        PTSUNNY   75  61  60 SE9       29.53F
DAUPHIN        PTSUNNY   77  61  57 S7        29.50S
ISLAND LAKE    MOSUNNY   61  48  63 E12G18    29.74R
PILOT MOUND      N/A     73  52  46 S16G22      N/A
THE PAS        CLOUDY    70  46  43 E14G21    29.55S
THOMPSON       PTSUNNY   57  43  58 E9G21     29.80R
WINNIPEG       PTSUNNY   75  50  41 S18       29.62F
LYNN LAKE      SUNNY     61  43  51 E18G26    29.74S
CHURCHILL      MOSUNNY   45  41  87 NE10      30.00R
GILLAM         MOSUNNY   55  34  44 NE14G22   29.87S
$$
                ***SASKATCHEWAN***

CITY           SKY/WX    TMP DP  RH WIND       PRES   REMARKS
ESTEVAN        CLOUDY    72  57  60 NW13G20   29.59R
KINDERSLEY     MOSUNNY   68  39  34 NW13G22   29.70S
LLOYDMINSTER   MOSUNNY   61  46  59 W20G26    29.66R
PRINCE ALBERT  MOSUNNY   70  54  56 NW15      29.53S
REGINA         MOSUNNY   70  59  68 NW22G30   29.59R
YORKTON        MOSUNNY   68  61  77 NW8       29.53R
N. BATTLEFORD  SUNNY     64  43  45 W23G29    29.65R
LA RONGE       CLOUDY    59  55  88 NE7       29.54S
SASKATOON      MOSUNNY   72  41  33 W21G31    29.60R
SWIFT CURRENT  SUNNY     70  43  37 NW15G24   29.69S
$$
NOTE: THESE ARE AUTOMATED STATIONS WITH LIMITED QUALITY CONTROL
      "FAIR" INDICATES FEW OR NO CLOUDS BELOW 12,000 FEET WITH NO
      SIGNIFICANT WEATHER AND/OR OBSTRUCTIONS TO VISIBILITY.
      SKY/WX - SKY CONDITION AND SIGNIFICANT WEATHER.
      TMP - AIR TEMPERATURE.    DP   - DEWPOINT TEMPERATURE.
      RH  - RELATIVE HUMIDITY.  PRES - PRESSURE.
      HX  - HEAT INDEX.         WCI  - WIND CHILL INDEX.
$




USA.gov is the U.S. government's official web portal to all federal, state and local government web resources and services.